Starlink 11358

operational
NORAD ID: 62558 Int'l Des: 2025-006 Owner: SPXS Country: US Constellation: starlink
LEOCIRCULAR

Über Starlink 11358

Beschreibung wird geladen...

Live-Position

3D-Globus wird geladen...

Nächste Überflüge

Höhenverlauf

Altitude vs Time

uPlot chart will show altitude changes over time

Zweizeiliger Elementsatz

1 62558U 25006E 25302.45751970 .00330024 00000-0 24540-2 0 9998
2 62558 43.0000 210.8617 0002757 289.5357 70.5213 15.71039813 45960
Epoch: 29. Okt. 2025 • Age: 12 hours

Aktueller Status

Höhe 362.7 km
Geschwindigkeit 7.69 km/s
Subsatellitenpunkt -31.30°S, 50.37°E
Startdatum 10. Jan. 2025
Alter 0.7 years
Typ internet

Technische Details

Klassifizierung Payload
Masse 960.00 kg
Trockenmasse 910.00 kg
Gesamtmasse 960.00 kg
Länge 0.30 m
Durchmesser 4.10 m
Spannweite 29.00 m
Form Box + pan
Hersteller SPXS
Bus-Typ Starlink V2MD
Phasenstatus In Orbit
Besitzer/Staat SPXS/US

Große Konstellationen

Loading constellations...